| time (UTC) | temp F | wind direction | speed MPH | gust MPH | rain 1hr in | rain 24hr in | rain mn in | humidity % | barometer mb |
| 20260502161546 | 62 | 315 | 5.0 | 12.0 | 0.00 | 0.00 | 0.00 | 41 | 941.3 |
| 20260502151535 | 59 | 302 | 2.0 | 10.0 | 0.00 | 0.00 | 0.00 | 47 | 941.1 |
| 20260502123008 | 46 | 280 | 0.0 | 1.0 | 0.00 | 0.00 | 0.00 | 64 | 940.5 |
| 20260502121508 | 46 | 280 | 0.0 | 2.0 | 0.00 | 0.00 | 0.00 | 63 | 940.4 |
| 20260502114506 | 47 | 279 | 2.0 | 9.0 | 0.00 | 0.00 | 0.00 | 59 | 940.3 |
| 20260502113012 | 48 | 271 | 3.0 | 9.0 | 0.00 | 0.00 | 0.00 | 59 | 940.1 |
| 20260502111504 | 48 | 264 | 1.0 | 4.0 | 0.00 | 0.00 | 0.00 | 59 | 939.9 |
| 20260502110003 | 46 | 268 | 1.0 | 4.0 | 0.00 | 0.00 | 0.00 | 60 | 939.8 |
| 20260502104502 | 46 | 275 | 0.0 | 2.0 | 0.00 | 0.00 | 0.00 | 58 | 939.8 |
| 20260502103001 | 47 | 276 | 0.0 | 1.0 | 0.00 | 0.00 | 0.00 | 56 | 939.7 |
| 20260502101621 | 48 | 276 | 0.0 | 2.0 | 0.00 | 0.00 | 0.00 | 53 | 939.7 |
| 20260502100116 | 49 | 277 | 0.0 | 2.0 | 0.00 | 0.00 | 0.00 | 51 | 940.0 |
| 20260502071534 | 47 | 153 | 0.0 | 0.0 | 0.00 | 0.00 | 0.00 | 48 | 940.4 |
| 20260502070033 | 48 | 153 | 0.0 | 2.0 | 0.00 | 0.00 | 0.00 | 46 | 940.4 |
| 20260502064539 | 48 | 148 | 0.0 | 5.0 | 0.00 | 0.00 | 0.00 | 45 | 940.4 |
| 20260502063031 | 47 | 156 | 0.0 | 5.0 | 0.00 | 0.00 | 0.00 | 46 | 940.4 |
| 20260502061528 | 47 | 158 | 0.0 | 3.0 | 0.00 | 0.00 | 0.00 | 46 | 940.5 |
| 20260502060027 | 47 | 146 | 1.0 | 3.0 | 0.00 | 0.00 | 0.00 | 46 | 940.6 |
| 20260502054525 | 47 | 125 | 1.0 | 3.0 | 0.00 | 0.00 | 0.00 | 45 | 940.6 |
| 20260502053027 | 47 | 135 | 0.0 | 2.0 | 0.00 | 0.00 | 0.00 | 46 | 940.8 |
| 20260502051522 | 47 | 135 | 0.0 | 2.0 | 0.00 | 0.00 | 0.00 | 44 | 940.9 |
| 20260502050026 | 47 | 126 | 0.0 | 3.0 | 0.00 | 0.00 | 0.00 | 44 | 941.0 |
| 20260502044519 | 45 | 129 | 0.0 | 2.0 | 0.00 | 0.00 | 0.00 | 47 | 941.1 |
| 20260502043021 | 44 | 136 | 0.0 | 1.0 | 0.00 | 0.00 | 0.00 | 48 | 941.2 |
| 20260502041517 | 46 | 136 | 0.0 | 1.0 | 0.00 | 0.00 | 0.00 | 45 | 941.3 |
| 20260502040022 | 48 | 136 | 0.0 | 2.0 | 0.00 | 0.00 | 0.00 | 42 | 941.4 |
| 20260502034515 | 48 | 142 | 0.0 | 2.0 | 0.00 | 0.00 | 0.00 | 41 | 941.6 |
| 20260502033013 | 49 | 145 | 0.0 | 3.0 | 0.00 | 0.00 | 0.00 | 39 | 941.7 |
| 20260502031512 | 49 | 190 | 0.0 | 2.0 | 0.00 | 0.00 | 0.00 | 39 | 941.7 |
| 20260502030012 | 49 | 192 | 0.0 | 2.0 | 0.00 | 0.00 | 0.00 | 39 | 941.7 |
| 20260502024510 | 51 | 192 | 0.0 | 2.0 | 0.00 | 0.00 | 0.00 | 37 | 941.7 |
| 20260502023009 | 53 | 192 | 1.0 | 2.0 | 0.00 | 0.00 | 0.00 | 36 | 941.8 |
| 20260502021508 | 57 | 192 | 0.0 | 2.0 | 0.00 | 0.00 | 0.00 | 33 | 941.8 |
| 20260502020015 | 61 | 192 | 0.0 | 2.0 | 0.00 | 0.00 | 0.00 | 29 | 941.8 |
| 20260502014505 | 64 | 192 | 1.0 | 3.0 | 0.00 | 0.00 | 0.00 | 25 | 942.0 |
| 20260502013004 | 66 | 192 | 1.0 | 5.0 | 0.00 | 0.00 | 0.00 | 22 | 942.0 |
| 20260502011512 | 68 | 196 | 2.0 | 7.0 | 0.00 | 0.00 | 0.00 | 21 | 942.1 |
| 20260502010001 | 69 | 202 | 1.0 | 7.0 | 0.00 | 0.00 | 0.00 | 20 | 942.2 |
| 20260502004501 | 69 | 185 | 3.0 | 10.0 | 0.00 | 0.00 | 0.00 | 20 | 942.4 |
| 20260502003059 | 69 | 190 | 3.0 | 9.0 | 0.00 | 0.00 | 0.00 | 19 | 942.4 |
| 20260502001557 | 69 | 205 | 3.0 | 9.0 | 0.00 | 0.00 | 0.00 | 19 | 942.6 |
| 20260502000112 | 70 | 253 | 2.0 | 8.0 | 0.00 | 0.00 | 0.00 | 19 | 942.8 |
| 20260501234555 | 70 | 212 | 4.0 | 9.0 | 0.00 | 0.00 | 0.00 | 18 | 942.8 |
| 20260501233053 | 69 | 243 | 3.0 | 12.0 | 0.00 | 0.00 | 0.00 | 18 | 942.8 |
| 20260501231601 | 69 | 258 | 3.0 | 10.0 | 0.00 | 0.00 | 0.00 | 20 | 943.0 |
| 20260501230050 | 70 | 209 | 3.0 | 8.0 | 0.00 | 0.00 | 0.00 | 19 | 943.1 |
| 20260501224558 | 69 | 257 | 3.0 | 10.0 | 0.00 | 0.00 | 0.00 | 20 | 943.1 |
| 20260501223046 | 70 | 225 | 4.0 | 8.0 | 0.00 | 0.00 | 0.00 | 20 | 943.3 |
| 20260501221605 | 69 | 204 | 3.0 | 9.0 | 0.00 | 0.00 | 0.00 | 19 | 943.5 |
| 20260501220048 | 70 | 209 | 3.0 | 9.0 | 0.00 | 0.00 | 0.00 | 21 | 943.6 |
| 20260501214541 | 69 | 190 | 3.0 | 9.0 | 0.00 | 0.00 | 0.00 | 21 | 943.9 |
| 20260501213041 | 69 | 226 | 3.0 | 12.0 | 0.00 | 0.00 | 0.00 | 20 | 944.0 |
| 20260501211537 | 69 | 190 | 5.0 | 12.0 | 0.00 | 0.00 | 0.00 | 20 | 944.3 |
| 20260501210036 | 69 | 264 | 5.0 | 12.0 | 0.00 | 0.00 | 0.00 | 21 | 944.3 |
| 20260501204533 | 68 | 223 | 3.0 | 8.0 | 0.00 | 0.00 | 0.00 | 22 | 944.4 |
| 20260501203032 | 67 | 223 | 4.0 | 14.0 | 0.00 | 0.00 | 0.00 | 23 | 944.6 |
| 20260501201530 | 68 | 160 | 3.0 | 9.0 | 0.00 | 0.00 | 0.00 | 23 | 944.7 |
| 20260501200027 | 67 | 200 | 2.0 | 10.0 | 0.00 | 0.00 | 0.00 | 26 | 944.7 |
| 20260501194529 | 66 | 223 | 3.0 | 12.0 | 0.00 | 0.00 | 0.00 | 24 | 944.7 |
| 20260501193035 | 66 | 196 | 1.0 | 14.0 | 0.00 | 0.00 | 0.00 | 23 | 944.9 |
| 20260501191531 | 65 | 185 | 2.0 | 10.0 | 0.00 | 0.00 | 0.00 | 25 | 945.1 |
| 20260501190045 | 65 | 200 | 3.0 | 12.0 | 0.00 | 0.00 | 0.00 | 24 | 945.2 |
| 20260501184532 | 66 | 182 | 1.0 | 8.0 | 0.00 | 0.00 | 0.00 | 26 | 945.2 |
| 20260501183020 | 65 | 198 | 2.0 | 8.0 | 0.00 | 0.00 | 0.00 | 28 | 945.4 |
| 20260501181514 | 63 | 188 | 2.0 | 7.0 | 0.00 | 0.00 | 0.00 | 27 | 945.5 |
| 20260501180012 | 64 | 212 | 1.0 | 6.0 | 0.00 | 0.00 | 0.00 | 28 | 945.6 |
| 20260501174515 | 63 | 260 | 5.0 | 11.0 | 0.00 | 0.00 | 0.00 | 27 | 945.8 |
| 20260501173007 | 61 | 186 | 2.0 | 5.0 | 0.00 | 0.00 | 0.00 | 27 | 945.8 |
| 20260501171506 | 60 | 188 | 4.0 | 9.0 | 0.00 | 0.00 | 0.00 | 29 | 945.9 |
| 20260501170005 | 60 | 225 | 3.0 | 6.0 | 0.00 | 0.00 | 0.00 | 29 | 945.9 |
| 20260501164503 | 59 | 272 | 2.0 | 9.0 | 0.00 | 0.00 | 0.00 | 32 | 946.1 |
| 20260501163059 | 58 | 239 | 3.0 | 9.0 | 0.00 | 0.00 | 0.00 | 33 | 946.2 |